STARLINK-1027 (44732 NORAD) Tracking and Keplerian Element Data

This shows tracking and keplerian element data for the satellite.

Feedback or suggestion? Click here.




ElementValue
Catalog44732
NameSTARLINK-1027
Epoch Orbit161
Epoch Day93.91667824
Epoch Year2020
RAAN212.9141
Inclination52.9982
Eccentricity0.0001207
Argument of Perigee78.9345
Mean Anonmoly319.5294
Mean Motion14.99089605
Decay Rate-0.00023736
L11 44732U 19074V 20093.91667824 -.00023736 00000-0 -19195-2 0 9998
L22 44732 52.9982 212.9141 0001207 78.9345 319.5294 14.99089605 1615

Live tracking and technical data element details for STARLINK-1027 (NORAD 44732). STARLINK-1027 can be tracked NOW for your location showing map with azimuth and elevation plus other details from your city location.

Track the satellite on the map from your city or location and see movement details for azimuth, elevation, latitude, longitude, range, height, and movement on the map or in text.







IsCatalogInMostPopularTable: catalog: 44732, numindb: 40
Update: records affected: 1



GetName: 44732 STARLINK-1027

Hit Count: updated at: Fri, 03 Apr 2020 22:21:07 GMT